星链-31739 (STARLINK-31739 )

导读 | 豆包AI

STARLINK-31739是美国太空探索技术公司 SpaceX 星链星座中的一颗卫星,于2024年5月14日发射升空,星链项目旨在为全球提供高速互联网接入服务,该卫星加入星座后,进一步扩展了星链网络覆盖范围,助力提升全球偏远地区网络连通能力。

基本信息
目录编号:
59766
目录名称:
STARLINK-31739
国际标识:
2024-091P
轨道中心:
EARTH
卫星名称:
星链-31739
卫星全名:
星链-31739 (STARLINK-31739 )
卫星状态:
在轨 (已飞行670 天)
发射日期:
2024-05-14 UTC
国别 :
美国 (US)
星等 :
--
轨道信息
数据来源 国际轨道数据 AOE轨道数据
星历时间 2026-03-15T19:43:53+0800
9小时前
查看轨道信息
2026-03-13T15:00:00+0800
2天前
查看轨道信息
半长轴 6853.435km 6853.363km
偏心率 0.0001381 0.0001066
轨道倾角 53.161° 53.164°
近地点辐角 83.492° 66.065°
升交点赤经 357.020° 7.230°
平近点角 276.624° 63.997°
近地点 474.351km 474.495km
远地点 476.245km 475.957km
周期 94.107分钟 94.106分钟
每日圈数 15.301724 15.301964
详细信息
固有亮度:
5
最大亮度:
1.5
卫星平台:
Starlink v2.0 mini
覆盖范围:
全球
运营商:
太空探索技术公司
运营商所在国:
美国
制造商(研发单位):
太空探索技术公司
制造商所在国:
美国
使用方式:
暂无
卫星简介
星链(Starlink)计划是由太空探索技术公司(SpaceX)提出的一个巨型低轨卫星互联网星座项目,计划在2019年至2024年间在太空搭建由约1.2万颗卫星组成的“星链”网络,其中1584颗将部署在地球上空550千米处的近地轨道,并从2020年开始工作。该卫星仍在工作。
2D轨道图
3D轨道图
轨道高度分析图
轨道倾角分析图
轨道综合分析图
查看轨道综合分析图